PRIVATE WETTERSTATION BILLIGHEIM-ALLFELD                       ZURCK
Wetterdaten: Dienstag, 14.10.2014
Datum Zeit Temp. A. Temp. A. min Temp. A. max Feuchte A. Luftdruck Regen Wind Richtung Richtung Sonnenschein ET Solar Taupunkt Windchill Windben Empfang
14.10.2014 00:00 10,4 C 10,4 C 10,4 C 91 % 1008,3 hPa 0,0 l/m 0,0 km/h (0 Bft) N 0 0 min 0,000 mm 0 W/m 9,0 C 10,4 C 0,0 km/h (0 Bft) 100 %
14.10.2014 00:10 10,3 C 10,3 C 10,4 C 91 % 1008,3 hPa 0,0 l/m 0,0 km/h (0 Bft) N 0 0 min 0,000 mm 0 W/m 8,9 C 10,3 C 0,0 km/h (0 Bft) 100 %
14.10.2014 00:20 10,3 C 10,3 C 10,3 C 91 % 1008,4 hPa 0,0 l/m 0,0 km/h (0 Bft) N 0 0 min 0,000 mm 0 W/m 8,9 C 10,3 C 0,0 km/h (0 Bft) 100 %
14.10.2014 00:30 10,3 C 10,3 C 10,4 C 91 % 1008,5 hPa 0,0 l/m 0,0 km/h (0 Bft) N 0 0 min 0,000 mm 0 W/m 8,9 C 10,3 C 0,0 km/h (0 Bft) 100 %
14.10.2014 00:40 10,5 C 10,4 C 10,5 C 90 % 1008,5 hPa 0,0 l/m 0,0 km/h (0 Bft) N 0 0 min 0,000 mm 0 W/m 8,9 C 10,5 C 0,0 km/h (0 Bft) 100 %
14.10.2014 00:50 10,6 C 10,5 C 10,6 C 90 % 1008,6 hPa 0,0 l/m 0,0 km/h (0 Bft) N 0 0 min 0,000 mm 0 W/m 9,0 C 10,6 C 0,0 km/h (0 Bft) 100 %
14.10.2014 01:00 10,7 C 10,6 C 10,7 C 90 % 1008,6 hPa 0,0 l/m 0,0 km/h (0 Bft) N 0 0 min 0,000 mm 0 W/m 9,1 C 10,7 C 0,0 km/h (0 Bft) 100 %
14.10.2014 01:10 10,7 C 10,7 C 10,7 C 90 % 1008,7 hPa 0,0 l/m 0,0 km/h (0 Bft) N 0 0 min 0,000 mm 0 W/m 9,1 C 10,7 C 0,0 km/h (0 Bft) 100 %
14.10.2014 01:20 10,7 C 10,7 C 10,7 C 91 % 1008,7 hPa 0,0 l/m 0,0 km/h (0 Bft) N 0 0 min 0,000 mm 0 W/m 9,3 C 10,7 C 0,0 km/h (0 Bft) 100 %
14.10.2014 01:30 10,7 C 10,7 C 10,7 C 91 % 1008,8 hPa 0,0 l/m 0,0 km/h (0 Bft) N 0 0 min 0,000 mm 0 W/m 9,3 C 10,7 C 0,0 km/h (0 Bft) 100 %
14.10.2014 01:40 10,6 C 10,6 C 10,7 C 91 % 1008,8 hPa 0,0 l/m 0,0 km/h (0 Bft) N 0 0 min 0,000 mm 0 W/m 9,2 C 10,6 C 0,0 km/h (0 Bft) 100 %
14.10.2014 01:50 10,6 C 10,6 C 10,6 C 91 % 1008,8 hPa 0,0 l/m 0,0 km/h (0 Bft) N 0 0 min 0,000 mm 0 W/m 9,2 C 10,6 C 0,0 km/h (0 Bft) 100 %
14.10.2014 02:00 10,6 C 10,6 C 10,7 C 91 % 1008,9 hPa 0,0 l/m 0,0 km/h (0 Bft) N 0 0 min 0,000 mm 0 W/m 9,2 C 10,6 C 0,0 km/h (0 Bft) 99 %
14.10.2014 02:10 10,6 C 10,6 C 10,7 C 90 % 1009,2 hPa 0,0 l/m 0,0 km/h (0 Bft) N 0 0 min 0,000 mm 0 W/m 9,0 C 10,6 C 0,0 km/h (0 Bft) 99 %
14.10.2014 02:20 10,9 C 10,6 C 10,9 C 90 % 1009,2 hPa 0,0 l/m 0,0 km/h (0 Bft) N 0 0 min 0,000 mm 0 W/m 9,3 C 10,9 C 0,0 km/h (0 Bft) 100 %
14.10.2014 02:30 11,2 C 10,9 C 11,2 C 90 % 1009,3 hPa 0,0 l/m 0,0 km/h (0 Bft) N 0 0 min 0,000 mm 0 W/m 9,6 C 11,2 C 0,0 km/h (0 Bft) 100 %
14.10.2014 02:40 11,7 C 11,2 C 11,7 C 90 % 1009,3 hPa 0,0 l/m 1,6 km/h (1 Bft) S-SO 157 0 min 0,000 mm 0 W/m 10,1 C 11,7 C 6,4 km/h (2 Bft) 100 %
14.10.2014 02:50 12,1 C 11,8 C 12,1 C 90 % 1009,4 hPa 0,0 l/m 3,2 km/h (1 Bft) S-SO 157 0 min 0,000 mm 0 W/m 10,5 C 12,1 C 6,4 km/h (2 Bft) 98 %
14.10.2014 03:00 12,1 C 12,1 C 12,1 C 90 % 1009,4 hPa 0,0 l/m 1,6 km/h (1 Bft) SO 135 0 min 0,000 mm 0 W/m 10,5 C 12,1 C 4,8 km/h (1 Bft) 100 %
14.10.2014 03:10 12,1 C 12,1 C 12,1 C 90 % 1009,4 hPa 0,0 l/m 0,0 km/h (0 Bft) S-SO 157 0 min 0,000 mm 0 W/m 10,5 C 12,1 C 4,8 km/h (1 Bft) 100 %
14.10.2014 03:20 12,1 C 12,1 C 12,1 C 90 % 1009,4 hPa 0,0 l/m 1,6 km/h (1 Bft) S-SO 157 0 min 0,000 mm 0 W/m 10,5 C 12,1 C 4,8 km/h (1 Bft) 100 %
14.10.2014 03:30 12,2 C 12,1 C 12,2 C 90 % 1009,4 hPa 0,0 l/m 0,0 km/h (0 Bft) S-SO 157 0 min 0,000 mm 0 W/m 10,6 C 12,2 C 1,6 km/h (1 Bft) 99 %
14.10.2014 03:40 12,2 C 12,2 C 12,2 C 90 % 1009,4 hPa 0,0 l/m 0,0 km/h (0 Bft) S-SO 157 0 min 0,000 mm 0 W/m 10,6 C 12,2 C 3,2 km/h (1 Bft) 100 %
14.10.2014 03:50 12,2 C 12,2 C 12,2 C 90 % 1009,4 hPa 0,0 l/m 0,0 km/h (0 Bft) S-SO 157 0 min 0,000 mm 0 W/m 10,6 C 12,2 C 1,6 km/h (1 Bft) 100 %
14.10.2014 04:00 12,2 C 12,2 C 12,2 C 90 % 1009,2 hPa 0,0 l/m 1,6 km/h (1 Bft) S-SO 157 0 min 0,000 mm 0 W/m 10,6 C 12,2 C 8,0 km/h (2 Bft) 100 %
14.10.2014 04:10 12,2 C 12,2 C 12,2 C 90 % 1009,3 hPa 0,0 l/m 0,0 km/h (0 Bft) S 180 0 min 0,000 mm 0 W/m 10,6 C 12,2 C 3,2 km/h (1 Bft) 97 %
14.10.2014 04:20 12,2 C 12,2 C 12,2 C 90 % 1009,3 hPa 0,0 l/m 0,0 km/h (0 Bft) N 0 0 min 0,000 mm 0 W/m 10,6 C 12,2 C 0,0 km/h (0 Bft) 98 %
14.10.2014 04:30 12,2 C 12,2 C 12,2 C 90 % 1009,2 hPa 0,0 l/m 0,0 km/h (0 Bft) S 180 0 min 0,000 mm 0 W/m 10,6 C 12,2 C 1,6 km/h (1 Bft) 97 %
14.10.2014 04:40 12,2 C 12,2 C 12,3 C 90 % 1009,1 hPa 0,0 l/m 0,0 km/h (0 Bft) S 180 0 min 0,000 mm 0 W/m 10,6 C 12,2 C 3,2 km/h (1 Bft) 98 %
14.10.2014 04:50 12,2 C 12,2 C 12,3 C 90 % 1009,0 hPa 0,0 l/m 0,0 km/h (0 Bft) N 0 0 min 0,000 mm 0 W/m 10,6 C 12,2 C 0,0 km/h (0 Bft) 96 %
14.10.2014 05:00 12,1 C 12,1 C 12,2 C 90 % 1009,1 hPa 0,0 l/m 0,0 km/h (0 Bft) N 0 0 min 0,000 mm 0 W/m 10,5 C 12,1 C 0,0 km/h (0 Bft) 98 %
14.10.2014 05:10 11,8 C 11,8 C 12,0 C 91 % 1009,1 hPa 0,0 l/m 0,0 km/h (0 Bft) N 0 0 min 0,000 mm 0 W/m 10,4 C 11,8 C 0,0 km/h (0 Bft) 97 %
14.10.2014 05:20 11,8 C 11,8 C 11,8 C 91 % 1009,1 hPa 0,0 l/m 0,0 km/h (0 Bft) N 0 0 min 0,000 mm 0 W/m 10,4 C 11,8 C 0,0 km/h (0 Bft) 97 %
14.10.2014 05:30 11,7 C 11,7 C 11,8 C 90 % 1009,2 hPa 0,0 l/m 0,0 km/h (0 Bft) N 0 0 min 0,000 mm 0 W/m 10,1 C 11,7 C 0,0 km/h (0 Bft) 98 %
14.10.2014 05:40 11,6 C 11,6 C 11,7 C 91 % 1009,3 hPa 0,0 l/m 0,0 km/h (0 Bft) N 0 0 min 0,000 mm 0 W/m 10,2 C 11,6 C 0,0 km/h (0 Bft) 96 %
14.10.2014 05:50 11,5 C 11,5 C 11,6 C 90 % 1009,2 hPa 0,0 l/m 0,0 km/h (0 Bft) N 0 0 min 0,000 mm 0 W/m 9,9 C 11,5 C 0,0 km/h (0 Bft) 98 %
14.10.2014 06:00 11,6 C 11,5 C 11,6 C 90 % 1009,2 hPa 0,2 l/m 0,0 km/h (0 Bft) N 0 0 min 0,000 mm 0 W/m 10,0 C 11,6 C 0,0 km/h (0 Bft) 97 %
14.10.2014 06:10 11,6 C 11,5 C 11,6 C 90 % 1009,2 hPa 0,2 l/m 0,0 km/h (0 Bft) N 0 0 min 0,000 mm 0 W/m 10,0 C 11,6 C 0,0 km/h (0 Bft) 98 %
14.10.2014 06:20 11,7 C 11,6 C 11,7 C 90 % 1009,1 hPa 0,0 l/m 0,0 km/h (0 Bft) S 180 0 min 0,000 mm 0 W/m 10,1 C 11,7 C 3,2 km/h (1 Bft) 98 %
14.10.2014 06:30 11,9 C 11,7 C 11,9 C 90 % 1009,1 hPa 0,0 l/m 0,0 km/h (0 Bft) S 180 0 min 0,000 mm 0 W/m 10,3 C 11,9 C 3,2 km/h (1 Bft) 97 %
14.10.2014 06:40 11,9 C 11,9 C 11,9 C 90 % 1009,0 hPa 0,0 l/m 1,6 km/h (1 Bft) S 180 0 min 0,000 mm 0 W/m 10,3 C 11,9 C 4,8 km/h (1 Bft) 98 %
14.10.2014 06:50 11,9 C 11,9 C 11,9 C 90 % 1008,9 hPa 0,0 l/m 0,0 km/h (0 Bft) SO 135 0 min 0,000 mm 0 W/m 10,3 C 11,9 C 1,6 km/h (1 Bft) 97 %
14.10.2014 07:00 12,0 C 11,9 C 12,0 C 90 % 1008,9 hPa 0,0 l/m 0,0 km/h (0 Bft) SO 135 0 min 0,000 mm 0 W/m 10,4 C 12,0 C 1,6 km/h (1 Bft) 98 %
14.10.2014 07:10 11,6 C 11,6 C 12,0 C 91 % 1009,0 hPa 0,0 l/m 0,0 km/h (0 Bft) N 0 0 min 0,000 mm 0 W/m 10,2 C 11,6 C 0,0 km/h (0 Bft) 97 %
14.10.2014 07:20 11,1 C 11,1 C 11,5 C 91 % 1008,8 hPa 0,0 l/m 0,0 km/h (0 Bft) N 0 0 min 0,000 mm 0 W/m 9,7 C 11,1 C 0,0 km/h (0 Bft) 98 %
14.10.2014 07:30 10,9 C 10,9 C 11,1 C 91 % 1009,0 hPa 0,0 l/m 0,0 km/h (0 Bft) N 0 0 min 0,000 mm 0 W/m 9,5 C 10,9 C 0,0 km/h (0 Bft) 98 %
14.10.2014 07:40 10,8 C 10,8 C 10,9 C 91 % 1008,9 hPa 0,2 l/m 0,0 km/h (0 Bft) N 0 0 min 0,000 mm 0 W/m 9,4 C 10,8 C 0,0 km/h (0 Bft) 97 %
14.10.2014 07:50 10,7 C 10,7 C 10,8 C 91 % 1009,1 hPa 0,0 l/m 0,0 km/h (0 Bft) N 0 0 min 0,000 mm 5 W/m 9,3 C 10,7 C 0,0 km/h (0 Bft) 98 %
14.10.2014 08:00 10,4 C 10,4 C 10,7 C 91 % 1009,1 hPa 0,0 l/m 0,0 km/h (0 Bft) N 0 0 min 0,000 mm 7 W/m 9,0 C 10,4 C 0,0 km/h (0 Bft) 97 %
14.10.2014 08:10 10,3 C 10,3 C 10,4 C 91 % 1009,2 hPa 0,0 l/m 0,0 km/h (0 Bft) N 0 0 min 0,000 mm 16 W/m 8,9 C 10,3 C 0,0 km/h (0 Bft) 97 %
14.10.2014 08:20 10,2 C 10,2 C 10,3 C 91 % 1009,3 hPa 0,0 l/m 0,0 km/h (0 Bft) N 0 0 min 0,000 mm 25 W/m 8,8 C 10,2 C 0,0 km/h (0 Bft) 97 %
14.10.2014 08:30 10,1 C 10,1 C 10,2 C 91 % 1009,5 hPa 0,0 l/m 0,0 km/h (0 Bft) N 0 0 min 0,000 mm 28 W/m 8,7 C 10,1 C 0,0 km/h (0 Bft) 98 %
14.10.2014 08:40 10,2 C 10,1 C 10,2 C 90 % 1009,7 hPa 0,0 l/m 0,0 km/h (0 Bft) N 0 0 min 0,000 mm 51 W/m 8,6 C 10,2 C 0,0 km/h (0 Bft) 97 %
14.10.2014 08:50 10,5 C 10,2 C 10,5 C 90 % 1009,6 hPa 0,0 l/m 0,0 km/h (0 Bft) N 0 0 min 0,000 mm 56 W/m 8,9 C 10,5 C 0,0 km/h (0 Bft) 97 %
14.10.2014 09:00 10,7 C 10,5 C 10,7 C 91 % 1009,7 hPa 0,0 l/m 0,0 km/h (0 Bft) S-SO 157 0 min 0,025 mm 65 W/m 9,3 C 10,7 C 1,6 km/h (1 Bft) 98 %
14.10.2014 09:10 10,9 C 10,7 C 10,9 C 90 % 1009,8 hPa 0,0 l/m 0,0 km/h (0 Bft) S-SO 157 0 min 0,000 mm 109 W/m 9,3 C 10,9 C 1,6 km/h (1 Bft) 97 %
14.10.2014 09:20 11,1 C 10,9 C 11,1 C 90 % 1009,9 hPa 0,0 l/m 0,0 km/h (0 Bft) S-SO 157 0 min 0,000 mm 146 W/m 9,5 C 11,1 C 1,6 km/h (1 Bft) 98 %
14.10.2014 09:30 11,2 C 11,1 C 11,2 C 90 % 1009,7 hPa 0,0 l/m 0,0 km/h (0 Bft) S-SO 157 10 min 0,000 mm 156 W/m 9,6 C 11,2 C 1,6 km/h (1 Bft) 97 %
14.10.2014 09:40 11,3 C 11,1 C 11,3 C 90 % 1009,8 hPa 0,0 l/m 0,0 km/h (0 Bft) S-SO 157 10 min 0,000 mm 241 W/m 9,7 C 11,3 C 3,2 km/h (1 Bft) 98 %
14.10.2014 09:50 11,9 C 11,3 C 11,9 C 91 % 1009,9 hPa 0,0 l/m 0,0 km/h (0 Bft) N 0 10 min 0,000 mm 271 W/m 10,5 C 11,9 C 0,0 km/h (0 Bft) 97 %
14.10.2014 10:00 13,3 C 11,3 C 13,3 C 91 % 1009,8 hPa 0,0 l/m 0,2 km/h (0 Bft) S-SO 162 0 min 0,077 mm 125 W/m 11,9 C 13,3 C 3,2 km/h (1 Bft) 99 %
14.10.2014 10:10 13,8 C 13,3 C 13,8 C 93 % 1009,7 hPa 0,0 l/m 0,3 km/h (0 Bft) S-SO 162 10 min 0,000 mm 272 W/m 12,7 C 13,8 C 4,8 km/h (1 Bft) 99 %
14.10.2014 10:20 14,3 C 13,8 C 14,3 C 92 % 1009,6 hPa 0,0 l/m 1,4 km/h (1 Bft) S-SO 148 10 min 0,000 mm 348 W/m 13,0 C 14,3 C 8,0 km/h (2 Bft) 100 %
14.10.2014 10:30 14,7 C 14,3 C 14,7 C 93 % 1009,7 hPa 0,0 l/m 2,1 km/h (1 Bft) S-SO 150 10 min 0,000 mm 214 W/m 13,6 C 14,7 C 11,3 km/h (2 Bft) 100 %
14.10.2014 10:40 14,8 C 14,7 C 14,8 C 93 % 1009,7 hPa 0,0 l/m 1,5 km/h (1 Bft) S 175 10 min 0,000 mm 359 W/m 13,7 C 14,8 C 9,7 km/h (2 Bft) 100 %
14.10.2014 10:50 15,2 C 14,8 C 15,2 C 93 % 1009,6 hPa 0,0 l/m 2,1 km/h (1 Bft) S 171 10 min 0,000 mm 374 W/m 14,1 C 15,2 C 9,7 km/h (2 Bft) 100 %
14.10.2014 11:00 15,6 C 15,2 C 15,6 C 92 % 1009,5 hPa 0,0 l/m 3,0 km/h (1 Bft) S 190 10 min 0,177 mm 396 W/m 14,3 C 15,6 C 11,3 km/h (2 Bft) 100 %
14.10.2014 11:10 16,0 C 15,6 C 16,1 C 91 % 1009,6 hPa 0,0 l/m 5,6 km/h (1 Bft) S-SO 150 10 min 0,000 mm 413 W/m 14,5 C 16,0 C 11,3 km/h (2 Bft) 100 %
14.10.2014 11:20 16,2 C 16,0 C 16,2 C 90 % 1009,5 hPa 0,0 l/m 2,7 km/h (1 Bft) S-SW 203 10 min 0,000 mm 432 W/m 14,6 C 16,2 C 9,7 km/h (2 Bft) 99 %
14.10.2014 11:30 16,6 C 16,2 C 16,6 C 90 % 1009,6 hPa 0,0 l/m 3,8 km/h (1 Bft) S-SO 165 10 min 0,000 mm 446 W/m 15,0 C 16,6 C 9,7 km/h (2 Bft) 100 %
14.10.2014 11:40 16,9 C 16,5 C 16,9 C 90 % 1009,7 hPa 0,0 l/m 1,4 km/h (1 Bft) SO 136 10 min 0,000 mm 475 W/m 15,2 C 16,9 C 9,7 km/h (2 Bft) 100 %
14.10.2014 11:50 17,2 C 16,9 C 17,2 C 90 % 1009,7 hPa 0,0 l/m 2,6 km/h (1 Bft) S 175 10 min 0,000 mm 480 W/m 15,5 C 17,2 C 9,7 km/h (2 Bft) 100 %
14.10.2014 12:00 17,3 C 17,2 C 17,3 C 88 % 1009,7 hPa 0,0 l/m 1,6 km/h (1 Bft) S-SO 167 10 min 0,254 mm 492 W/m 15,3 C 17,3 C 9,7 km/h (2 Bft) 100 %
14.10.2014 12:10 17,5 C 17,3 C 17,5 C 85 % 1009,7 hPa 0,0 l/m 3,8 km/h (1 Bft) SO 128 10 min 0,000 mm 506 W/m 14,9 C 17,5 C 11,3 km/h (2 Bft) 100 %
14.10.2014 12:20 17,7 C 17,4 C 17,7 C 84 % 1009,6 hPa 0,0 l/m 4,2 km/h (1 Bft) S 184 10 min 0,000 mm 512 W/m 15,0 C 17,7 C 14,5 km/h (3 Bft) 100 %
14.10.2014 12:30 17,8 C 17,7 C 17,8 C 84 % 1009,7 hPa 0,0 l/m 3,8 km/h (1 Bft) S-SW 200 10 min 0,000 mm 515 W/m 15,1 C 17,8 C 12,9 km/h (3 Bft) 100 %
14.10.2014 12:40 18,2 C 17,8 C 18,2 C 83 % 1009,7 hPa 0,0 l/m 4,5 km/h (1 Bft) S-SW 207 10 min 0,000 mm 519 W/m 15,3 C 18,2 C 11,3 km/h (2 Bft) 100 %
14.10.2014 12:50 18,5 C 18,2 C 18,5 C 81 % 1009,3 hPa 0,0 l/m 3,1 km/h (1 Bft) S-SO 164 10 min 0,000 mm 522 W/m 15,2 C 18,5 C 11,3 km/h (2 Bft) 100 %
14.10.2014 13:00 18,5 C 18,4 C 18,5 C 81 % 1009,2 hPa 0,0 l/m 2,5 km/h (1 Bft) SW 217 10 min 0,280 mm 527 W/m 15,2 C 18,5 C 9,7 km/h (2 Bft) 100 %
14.10.2014 13:10 18,7 C 18,5 C 18,7 C 81 % 1009,1 hPa 0,0 l/m 4,2 km/h (1 Bft) SW 217 10 min 0,000 mm 531 W/m 15,4 C 18,7 C 11,3 km/h (2 Bft) 99 %
14.10.2014 13:20 18,7 C 18,7 C 18,8 C 79 % 1009,0 hPa 0,0 l/m 2,5 km/h (1 Bft) S 184 10 min 0,000 mm 526 W/m 15,0 C 18,7 C 9,7 km/h (2 Bft) 100 %
14.10.2014 13:30 18,7 C 18,7 C 18,7 C 80 % 1008,8 hPa 0,0 l/m 0,8 km/h (0 Bft) SO 146 10 min 0,000 mm 533 W/m 15,2 C 18,7 C 8,0 km/h (2 Bft) 100 %
14.10.2014 13:40 18,7 C 18,6 C 18,8 C 78 % 1008,5 hPa 0,0 l/m 1,6 km/h (1 Bft) S-SW 201 10 min 0,000 mm 564 W/m 14,8 C 18,7 C 9,7 km/h (2 Bft) 100 %
14.10.2014 13:50 19,1 C 18,7 C 19,1 C 79 % 1008,4 hPa 0,0 l/m 1,2 km/h (1 Bft) S-SW 211 10 min 0,000 mm 543 W/m 15,4 C 19,1 C 8,0 km/h (2 Bft) 100 %
14.10.2014 14:00 19,3 C 19,1 C 19,3 C 74 % 1008,4 hPa 0,0 l/m 3,7 km/h (1 Bft) SW 223 10 min 0,254 mm 316 W/m 14,5 C 19,3 C 11,3 km/h (2 Bft) 100 %
14.10.2014 14:10 19,4 C 19,3 C 19,4 C 74 % 1008,2 hPa 0,0 l/m 5,0 km/h (1 Bft) S 171 10 min 0,000 mm 510 W/m 14,6 C 19,4 C 11,3 km/h (2 Bft) 100 %
14.10.2014 14:20 19,3 C 19,3 C 19,4 C 75 % 1008,3 hPa 0,0 l/m 4,6 km/h (1 Bft) S-SW 201 10 min 0,000 mm 353 W/m 14,8 C 19,3 C 14,5 km/h (3 Bft) 100 %
14.10.2014 14:30 19,3 C 19,3 C 19,4 C 75 % 1008,3 hPa 0,0 l/m 4,1 km/h (1 Bft) S 186 0 min 0,000 mm 102 W/m 14,8 C 19,3 C 11,3 km/h (2 Bft) 100 %
14.10.2014 14:40 19,2 C 19,1 C 19,3 C 76 % 1008,3 hPa 0,0 l/m 3,1 km/h (1 Bft) S-SW 206 10 min 0,000 mm 200 W/m 14,9 C 19,2 C 11,3 km/h (2 Bft) 100 %
14.10.2014 14:50 19,3 C 19,2 C 19,3 C 74 % 1008,4 hPa 0,0 l/m 5,8 km/h (2 Bft) S 188 10 min 0,000 mm 272 W/m 14,5 C 19,3 C 16,1 km/h (3 Bft) 100 %
14.10.2014 15:00 19,6 C 19,3 C 19,6 C 76 % 1008,4 hPa 0,0 l/m 5,4 km/h (1 Bft) S 180 10 min 0,178 mm 153 W/m 15,2 C 19,6 C 17,7 km/h (3 Bft) 100 %
14.10.2014 15:10 19,4 C 19,4 C 19,6 C 73 % 1008,5 hPa 0,0 l/m 4,6 km/h (1 Bft) SW 225 0 min 0,000 mm 72 W/m 14,4 C 19,4 C 16,1 km/h (3 Bft) 100 %
14.10.2014 15:20 19,2 C 19,2 C 19,4 C 75 % 1008,5 hPa 0,0 l/m 2,1 km/h (1 Bft) W-SW 246 10 min 0,000 mm 446 W/m 14,7 C 19,2 C 8,0 km/h (2 Bft) 100 %
14.10.2014 15:30 19,6 C 19,2 C 19,6 C 72 % 1008,3 hPa 0,0 l/m 4,1 km/h (1 Bft) SW 224 10 min 0,000 mm 257 W/m 14,4 C 19,6 C 11,3 km/h (2 Bft) 100 %
14.10.2014 15:40 19,9 C 19,6 C 19,9 C 73 % 1008,3 hPa 0,0 l/m 5,0 km/h (1 Bft) SW 223 10 min 0,000 mm 207 W/m 14,9 C 19,9 C 14,5 km/h (3 Bft) 100 %
14.10.2014 15:50 20,0 C 19,9 C 20,1 C 71 % 1008,2 hPa 0,0 l/m 3,0 km/h (1 Bft) S-SO 161 0 min 0,000 mm 123 W/m 14,6 C 20,0 C 11,3 km/h (2 Bft) 100 %
14.10.2014 16:00 19,8 C 19,8 C 20,0 C 72 % 1008,2 hPa 0,0 l/m 3,9 km/h (1 Bft) S-SW 211 0 min 0,127 mm 83 W/m 14,6 C 19,8 C 12,9 km/h (3 Bft) 100 %
14.10.2014 16:10 19,8 C 19,7 C 19,8 C 70 % 1008,1 hPa 0,0 l/m 1,4 km/h (1 Bft) W-SW 250 0 min 0,000 mm 83 W/m 14,2 C 19,8 C 8,0 km/h (2 Bft) 100 %
14.10.2014 16:20 19,8 C 19,8 C 19,9 C 71 % 1008,1 hPa 0,0 l/m 1,1 km/h (1 Bft) W-SW 257 0 min 0,000 mm 53 W/m 14,4 C 19,8 C 9,7 km/h (2 Bft) 100 %
14.10.2014 16:30 19,6 C 19,6 C 19,8 C 72 % 1008,0 hPa 0,0 l/m 2,0 km/h (1 Bft) S-SW 213 0 min 0,000 mm 44 W/m 14,4 C 19,6 C 9,7 km/h (2 Bft) 100 %
14.10.2014 16:40 19,4 C 19,4 C 19,6 C 73 % 1008,0 hPa 0,0 l/m 2,0 km/h (1 Bft) W 280 0 min 0,000 mm 40 W/m 14,4 C 19,4 C 9,7 km/h (2 Bft) 100 %
14.10.2014 16:50 19,3 C 19,3 C 19,4 C 72 % 1008,0 hPa 0,0 l/m 0,9 km/h (0 Bft) W 265 0 min 0,000 mm 39 W/m 14,1 C 19,3 C 8,0 km/h (2 Bft) 100 %
14.10.2014 17:00 19,2 C 19,2 C 19,3 C 73 % 1008,0 hPa 0,0 l/m 1,2 km/h (1 Bft) W-SW 244 0 min 0,050 mm 37 W/m 14,2 C 19,2 C 8,0 km/h (2 Bft) 100 %
14.10.2014 17:10 19,1 C 19,1 C 19,2 C 73 % 1007,9 hPa 0,0 l/m 3,2 km/h (1 Bft) W-SW 247 0 min 0,000 mm 44 W/m 14,1 C 19,1 C 8,0 km/h (2 Bft) 100 %
14.10.2014 17:20 19,0 C 19,0 C 19,1 C 73 % 1007,8 hPa 0,0 l/m 4,5 km/h (1 Bft) W-SW 253 0 min 0,000 mm 37 W/m 14,0 C 19,0 C 9,7 km/h (2 Bft) 100 %
14.10.2014 17:30 18,8 C 18,8 C 19,0 C 73 % 1007,9 hPa 0,0 l/m 1,6 km/h (1 Bft) W-SW 252 0 min 0,000 mm 30 W/m 13,9 C 18,8 C 8,0 km/h (2 Bft) 100 %
14.10.2014 17:40 18,6 C 18,6 C 18,8 C 74 % 1007,9 hPa 0,0 l/m 0,0 km/h (0 Bft) W-SW 251 0 min 0,000 mm 26 W/m 13,9 C 18,6 C 1,6 km/h (1 Bft) 100 %
14.10.2014 17:50 18,4 C 18,4 C 18,6 C 75 % 1007,7 hPa 0,0 l/m 0,0 km/h (0 Bft) W-SW 251 0 min 0,000 mm 23 W/m 13,9 C 18,4 C 1,6 km/h (1 Bft) 100 %
14.10.2014 18:00 18,2 C 18,2 C 18,4 C 77 % 1007,6 hPa 0,0 l/m 0,0 km/h (0 Bft) W-SW 251 0 min 0,026 mm 18 W/m 14,1 C 18,2 C 1,6 km/h (1 Bft) 100 %
14.10.2014 18:10 17,8 C 17,8 C 18,2 C 80 % 1007,8 hPa 0,0 l/m 0,0 km/h (0 Bft) W-SW 251 0 min 0,000 mm 11 W/m 14,3 C 17,8 C 1,6 km/h (1 Bft) 100 %
14.10.2014 18:20 17,2 C 17,2 C 17,8 C 82 % 1007,7 hPa 0,0 l/m 0,0 km/h (0 Bft) W-SW 251 0 min 0,000 mm 5 W/m 14,1 C 17,2 C 0,0 km/h (0 Bft) 100 %
14.10.2014 18:30 16,6 C 16,6 C 17,2 C 83 % 1007,7 hPa 0,0 l/m 0,0 km/h (0 Bft) W-SW 251 0 min 0,000 mm 0 W/m 13,7 C 16,6 C 0,0 km/h (0 Bft) 100 %
14.10.2014 18:40 16,2 C 16,2 C 16,6 C 85 % 1007,7 hPa 0,0 l/m 0,0 km/h (0 Bft) W-SW 251 0 min 0,000 mm 0 W/m 13,7 C 16,2 C 1,6 km/h (1 Bft) 100 %
14.10.2014 18:50 15,8 C 15,8 C 16,2 C 87 % 1007,8 hPa 0,0 l/m 0,0 km/h (0 Bft) W-SW 251 0 min 0,000 mm 0 W/m 13,6 C 15,8 C 0,0 km/h (0 Bft) 100 %
14.10.2014 19:00 15,4 C 15,4 C 15,8 C 87 % 1007,8 hPa 0,0 l/m 0,0 km/h (0 Bft) W-SW 251 0 min 0,000 mm 0 W/m 13,2 C 15,4 C 0,0 km/h (0 Bft) 100 %
14.10.2014 19:10 15,1 C 15,1 C 15,4 C 88 % 1007,9 hPa 0,0 l/m 0,0 km/h (0 Bft) W-SW 251 0 min 0,000 mm 0 W/m 13,1 C 15,1 C 0,0 km/h (0 Bft) 99 %
14.10.2014 19:20 14,8 C 14,8 C 15,1 C 89 % 1008,0 hPa 0,0 l/m 0,0 km/h (0 Bft) W-SW 251 0 min 0,000 mm 0 W/m 13,0 C 14,8 C 0,0 km/h (0 Bft) 100 %
14.10.2014 19:30 14,6 C 14,6 C 14,8 C 90 % 1008,0 hPa 0,0 l/m 0,0 km/h (0 Bft) W-SW 251 0 min 0,000 mm 0 W/m 13,0 C 14,6 C 0,0 km/h (0 Bft) 100 %
14.10.2014 19:40 14,4 C 14,4 C 14,6 C 90 % 1008,0 hPa 0,0 l/m 0,0 km/h (0 Bft) W-SW 251 0 min 0,000 mm 0 W/m 12,8 C 14,4 C 0,0 km/h (0 Bft) 100 %
14.10.2014 19:50 14,2 C 14,2 C 14,4 C 91 % 1008,0 hPa 0,0 l/m 0,0 km/h (0 Bft) W-SW 251 0 min 0,000 mm 0 W/m 12,8 C 14,2 C 0,0 km/h (0 Bft) 100 %
14.10.2014 20:00 14,0 C 14,0 C 14,2 C 91 % 1007,9 hPa 0,0 l/m 0,0 km/h (0 Bft) W-SW 251 0 min 0,000 mm 0 W/m 12,6 C 14,0 C 0,0 km/h (0 Bft) 100 %
14.10.2014 20:10 13,8 C 13,8 C 14,0 C 92 % 1007,9 hPa 0,0 l/m 0,0 km/h (0 Bft) W-SW 251 0 min 0,000 mm 0 W/m 12,5 C 13,8 C 0,0 km/h (0 Bft) 100 %
14.10.2014 20:20 13,7 C 13,7 C 13,9 C 92 % 1007,9 hPa 0,0 l/m 0,0 km/h (0 Bft) W-SW 251 0 min 0,000 mm 0 W/m 12,4 C 13,7 C 0,0 km/h (0 Bft) 100 %
14.10.2014 20:30 13,7 C 13,6 C 13,7 C 92 % 1007,9 hPa 0,0 l/m 0,0 km/h (0 Bft) W-SW 251 0 min 0,000 mm 0 W/m 12,4 C 13,7 C 0,0 km/h (0 Bft) 100 %
14.10.2014 20:40 13,6 C 13,6 C 13,7 C 92 % 1007,8 hPa 0,0 l/m 0,0 km/h (0 Bft) W-SW 251 0 min 0,000 mm 0 W/m 12,3 C 13,6 C 0,0 km/h (0 Bft) 100 %
14.10.2014 20:50 13,5 C 13,5 C 13,6 C 92 % 1008,0 hPa 0,0 l/m 0,0 km/h (0 Bft) W-SW 251 0 min 0,000 mm 0 W/m 12,2 C 13,5 C 0,0 km/h (0 Bft) 100 %
14.10.2014 21:00 13,4 C 13,4 C 13,5 C 92 % 1008,0 hPa 0,0 l/m 0,0 km/h (0 Bft) W-SW 251 0 min 0,000 mm 0 W/m 12,1 C 13,4 C 0,0 km/h (0 Bft) 100 %
14.10.2014 21:10 13,4 C 13,4 C 13,4 C 92 % 1007,9 hPa 0,0 l/m 0,0 km/h (0 Bft) N 0 0 min 0,000 mm 0 W/m 12,1 C 13,4 C 0,0 km/h (0 Bft) 100 %
14.10.2014 21:20 13,3 C 13,3 C 13,4 C 92 % 1007,9 hPa 0,0 l/m 0,0 km/h (0 Bft) N 0 0 min 0,000 mm 0 W/m 12,0 C 13,3 C 0,0 km/h (0 Bft) 100 %
14.10.2014 21:30 13,3 C 13,3 C 13,4 C 92 % 1007,8 hPa 0,0 l/m 0,0 km/h (0 Bft) N 0 0 min 0,000 mm 0 W/m 12,0 C 13,3 C 0,0 km/h (0 Bft) 100 %
14.10.2014 21:40 13,2 C 13,2 C 13,3 C 92 % 1007,9 hPa 0,0 l/m 0,0 km/h (0 Bft) N 0 0 min 0,000 mm 0 W/m 11,9 C 13,2 C 0,0 km/h (0 Bft) 100 %
14.10.2014 21:50 13,0 C 13,0 C 13,1 C 92 % 1007,8 hPa 0,0 l/m 0,0 km/h (0 Bft) N 0 0 min 0,000 mm 0 W/m 11,7 C 13,0 C 0,0 km/h (0 Bft) 100 %
14.10.2014 22:00 12,8 C 12,8 C 13,0 C 92 % 1007,9 hPa 0,0 l/m 0,0 km/h (0 Bft) N 0 0 min 0,000 mm 0 W/m 11,5 C 12,8 C 0,0 km/h (0 Bft) 100 %
14.10.2014 22:10 12,7 C 12,7 C 12,8 C 92 % 1008,0 hPa 0,0 l/m 0,0 km/h (0 Bft) N 0 0 min 0,000 mm 0 W/m 11,4 C 12,7 C 0,0 km/h (0 Bft) 100 %
14.10.2014 22:20 12,6 C 12,6 C 12,7 C 92 % 1008,1 hPa 0,0 l/m 0,0 km/h (0 Bft) N 0 0 min 0,000 mm 0 W/m 11,3 C 12,6 C 0,0 km/h (0 Bft) 89 %
14.10.2014 22:30 12,4 C 12,4 C 12,6 C 92 % 1008,1 hPa 0,0 l/m 0,0 km/h (0 Bft) N 0 0 min 0,000 mm 0 W/m 11,1 C 12,4 C 0,0 km/h (0 Bft) 100 %
14.10.2014 22:40 12,3 C 12,3 C 12,4 C 92 % 1008,1 hPa 0,0 l/m 0,0 km/h (0 Bft) N 0 0 min 0,000 mm 0 W/m 11,0 C 12,3 C 0,0 km/h (0 Bft) 100 %
14.10.2014 22:50 12,3 C 12,3 C 12,3 C 92 % 1008,1 hPa 0,0 l/m 0,0 km/h (0 Bft) N 0 0 min 0,000 mm 0 W/m 11,0 C 12,3 C 0,0 km/h (0 Bft) 99 %
14.10.2014 23:00 12,2 C 12,2 C 12,3 C 92 % 1008,0 hPa 0,0 l/m 0,0 km/h (0 Bft) N 0 0 min 0,000 mm 0 W/m 10,9 C 12,2 C 0,0 km/h (0 Bft) 100 %
14.10.2014 23:10 12,2 C 12,2 C 12,3 C 92 % 1008,0 hPa 0,0 l/m 0,0 km/h (0 Bft) N 0 0 min 0,000 mm 0 W/m 10,9 C 12,2 C 0,0 km/h (0 Bft) 100 %
14.10.2014 23:20 12,1 C 12,1 C 12,2 C 92 % 1008,1 hPa 0,0 l/m 0,0 km/h (0 Bft) N 0 0 min 0,000 mm 0 W/m 10,8 C 12,1 C 0,0 km/h (0 Bft) 100 %
14.10.2014 23:30 11,8 C 11,8 C 12,1 C 93 % 1008,3 hPa 0,0 l/m 0,0 km/h (0 Bft) N 0 0 min 0,000 mm 0 W/m 10,7 C 11,8 C 0,0 km/h (0 Bft) 100 %
14.10.2014 23:40 11,9 C 11,8 C 11,9 C 92 % 1008,3 hPa 0,0 l/m 0,0 km/h (0 Bft) N 0 0 min 0,000 mm 0 W/m 10,6 C 11,9 C 0,0 km/h (0 Bft) 100 %
14.10.2014 23:50 11,9 C 11,8 C 11,9 C 92 % 1008,2 hPa 0,0 l/m 0,0 km/h (0 Bft) N 0 0 min 0,000 mm 0 W/m 10,6 C 11,9 C 0,0 km/h (0 Bft) 100 %
_ Min-Zeit 08:30 08:30 08:30 16:10 18:00 - 00:00 - - - - - 08:40 08:30 00:00 22:20
Minimum _ 10,1 C 10,1 C 10,2 C 70 % 1007,6 hPa - 0,0 km/h (0 Bft) - - - - - 8,6 C 10,1 C 0,0 km/h (0 Bft) 89 %
_ Max-Zeit 15:50 15:50 15:50 10:10 09:20 06:00 14:50 - - 09:30 13:00 13:40 11:50 15:50 15:00 00:00
Maximum _ 20,1 C 19,9 C 20,1 C 93 % 1009,9 hPa 0,2 l/m 5,8 km/h
S (2 Bft)
- - 10 min 0,280 mm 564 W/m 15,5 C 20,0 C 17,7 km/h
S-SW (3 Bft)
100 %
Durchschnitt _ 14,2 C 14,1 C 14,3 C 87 % 1008,7 hPa #0,6 l/m 1,0 km/h (0 Bft) S-SO - #5:50 h #1,448 mm 240 W/m 12,0 C 14,2 C 3,9 km/h (1 Bft) 99 %
PRIVATE WETTERSTATION BILLIGHEIM-ALLFELD - www.neckar-odenwald-wetter.de - Holger Sonntag